"Pseudo-MPEC" for LTKzzDH

Created 2022 Nov 26 21:22:15 UT using Find_Orb

Click here for an explanation of pseudo-MPECs

 
 Astrometry: 
     LTKzzDH &C2014 02 15Z!JTM]\qD+?h^Tb+5t4Yh8(Ta`,@m@AtIUN_LMjF-X*uiQIW07plW84
     LTKzzDH &C2014 02 15EW,,QsrUvM)[SVKyd]]XM1(^usTAs1MY=M96En2LxG.rYLUq,hx=W84
     LTKzzDH &C2016 02 14p\8C7Ypa)?4C/47u:iB@R:T$JK18INb+A_vTVS;9L*\\rN1fq.-IW84
     LTKzzDH &C2016 02 14;NLf9diALt2KqB$f[*JrfvRcq`Jue#iQSt7ZnTFs%hQE#\puFO./W84
     LTKzzDH &C2016 02 15!H3vexST)Ia#`AL:gy?/Qe3g5bC58Ry92ieeB?Hk[LQRFDQ?-\^tW84
     LTKzzDH &C2016 02 15#M]GcOybhSt1?9S8bxs4)P@ONKo[b-Ve[mfDv?,sZO8t\*\Z$Jc.W84
     LTKzzDH &C2016 02 29Dm\oq1I'Q*t=(p]44VI=Hwy,3Y07wr[jT*,LU-Astrometrym:(dW84
     LTKzzDH &C2016 02 29BRG1AW48Y18fxKP5HIJlWTx]J.k=s(x%)/aw9t.+`,VkuY:EKq$UW84
     LTKzzDH &C2017 10 03$2Fvhs$fRaP-Mw\+7Ba(rtv=FnqJ#v6#r$PPD\ktinHCE^N\ZjeRW84
     LTKzzDH &C2017 12 11d;J0cu4fq$CC\MM'0?!S3#w2;%nvo3(4O,x8(3Yy7Vwt*JUni0GVW84
     LTKzzDH &C2018 01 054xhO$]%MJbayn`lvs%Pd[M8ewmYg$[ClYfu7IUeM=L'e2sb_x8$YW84
     LTKzzDH &C2018 01 05eyd2]Bm[4'Gcp)w5V$!Bwc\OU`ctVb6tNtBU*IHALfKIV[NWW%t9W84
     LTKzzDH &C2018 09 09UOyr#0Z9*bg!*v+-RS)$tT(*i0aFi5`x9pA#*4bmVcQRH9+VBc*PW84
     LTKzzDH* S2018 09 22k4?UO?EdYC(sn#Px78EG!w$6+ZXnd.:x'o'FnklMS:P]8Av8iQ5CC57
     LTKzzDH  s2018 09 22U%Ni7vSy6+`2.W`*9:4w-0MyS$hv4m$#^W]k=+)C9`*nEwb3NIC!C57
     LTKzzDH  S2018 09 22HvZ6Ln]PqAQ(Xvyu'(stBWBA.+U].Rredacted;^1OGUf_,^Z7@mC57
     LTKzzDH  s2018 09 223?BnG;BDLe?[Jt2MVCVOE1;*qS.t1u9TC;If9v+X1/SOAZ_ejhdUC57
     LTKzzDH  S2018 09 22^nM7f5exeY,.tclickUN3QYEbBRkd2+)VMmf1;9#'(hYmGeVuA*bC57
     LTKzzDH  s2018 09 22L.i``4JMs-]GIXo5wy$0l%vHUq-=wK%f1@U6GNC*ux..mJwDIUUpC57
     LTKzzDH  S2018 09 22[+rj%-S*gt-O,T#O^S'F;uq8stnND)3qsiPZC[G=wTl]bI2!VnGKC57
     LTKzzDH  s2018 09 22irdbG2kk;$hnmH7Np.%$bg#NhZB5+1.INU[sPw=E0g6^7D=;D%\SC57
     LTKzzDH  S2018 09 23J\v:Aaki1beW:(O_lpv*-@G#?_uZd1VXRqZwaEXI0icm#_5SDBsEC57
     LTKzzDH  s2018 09 23ylL9g,Wx5+3I\Nn:x$);qH1]q/YET3kL3f]e\rpJASxiGvmhereQC57
     LTKzzDH  S2018 09 23l?Sd*j69#5m6NmnyYQK)!F6y5^P)ivB`,2vE51lltB9CvrNGVOnlC57
     LTKzzDH  s2018 09 23()P2ffors.B;INMyM=e@CWneJ7;Cecyn1EQnP=5IWeO`lN3/9-RJC57
     LTKzzDH  S2018 09 23rum3rYPK';pX0PEJVVi+[3PEM]QQ9#akRtu#!7N4GNdFR@AKsW^IC57
     LTKzzDH  s2018 09 23e`-qT1Q;*5waj4i$5B5Jbllge#h%E(fp6wH+SRt+mes]C/Ufx%(jC57
     LTKzzDH  S2018 09 23Kp/NPQ-u4tlJqn0%F*0mI)Pml+3k1;5\eyeo*rkl7C+SC+7-xa6OC57
     LTKzzDH  s2018 09 23.)4uNyj=\VGKGsp?fab*lo'Q-4PH$Y0-m+5muS)+I*Wp#'jiiRM5C57
     LTKzzDH  S2018 09 24H.g/v=W!Pg.CLxjGQMSTWd%[ko$4G,JIn7Xk.iexplanationl^0C57
     LTKzzDH  s2018 09 24T[\RL^]y781!=FF2$[3d_]YvoJ*9B#J#`#)D`]5Rnjo:6[rKI]0`C57
     LTKzzDH  S2018 09 24`/@jH62L`jfcsd$Vy0JiZY;7_NI$j04dT6Ab`1($*l(;kl?4L8HBC57
     LTKzzDH  s2018 09 24)-`WVe!@yeu5eRKMZO1M1r$F-P^Urg3xLxymQdh@)^rT1-^vZI#,C57
     LTKzzDH  S2018 09 24'#92;H^(qZkIY^wAdm4OLK4P(AW_4C](\USF#O*WLdx,Nlu#F!O[C57
     LTKzzDH  s2018 09 24Q1Vcqj`q'hT]vJ)Sh0R/3'Ub*Uc36;ylXp7AaO!]+6MZ%cm`UENsC57
     LTKzzDH  S2018 09 25X411F'd#@KRBb,'R,.Sg34N5Dsc=+'+=lQDn;!5AT1)`l\Gih3+VC57
     LTKzzDH  s2018 09 25;@4]q@e]1-[I]oDkMQLcRLR@98QUXQipI/[%FF3(L6?AZ0!-;MKnC57
     LTKzzDH  S2018 09 27S#hm;?HNKkDNUYS!%@],V'62]x(0IPdr1vlYJ=JHE%[R'`sl)AN@C57
     LTKzzDH  s2018 09 27-1r5uue_U^pQP)UGT#l3^Dnyq3E!Tsu;*m+Bp?w.jO8s*9'b+;F*C57
     LTKzzDH  S2018 09 28cy!vEV*QIx+)@UHrd8!Vf_pmGUbH9GolKae#a4!Fqv!?ne2ovR.FC57
     LTKzzDH  s2018 09 28yVU$oB%dxL5978%nFvjo8A'-=3;c3K?O)hq/Ro5g/LZcQNdMrfv0C57
     LTKzzDH  S2018 09 28-X=%k2B$8;SA)$*5t?W]E7v?d#7*TGl2q#*m(B/5l:(hv_%AP%roC57
     LTKzzDH  s2018 09 28DO,()StoqEs!9UxDH^rPni+j?1b4/k@7OMfDx1=$LRZqn)Uf365#C57
     LTKzzDH  S2018 09 28A%v,A1;2+-a3s,1*#ecP=wGeV,:lAqhFmtgXjSdw;wJ!b.$NqTkoC57
     LTKzzDH  s2018 09 28UWO2cCX^:F^bu%@?X^s5fNxNSLFaqo=ND)kh;O\b3D78?VK#Lx9lC57
     LTKzzDH  S2018 09 30Mk@qfgh5^q4AbV]l8yY76LVFwYruLdHq^(h%JW:bNN*j^g\w@h0BC57
     LTKzzDH  s2018 09 30DV?W(n^F=U*yD/I!$2),psk]Vh#LVgnTCgeK[IKx%UR#?!XCgaO]C57
     LTKzzDH  S2018 09 30ZttjbQrd;Qlfgok?NGqQ@M/=:pFR+ALu]$l0vV68b\XORJnKf2k9C57
     LTKzzDH  s2018 09 30A.-lT_wOfL3jCfO3X7p7@ah\2.nW!j?/6sHg#4m6X2YEaF#RnLrUC57
     LTKzzDH  S2018 09 30:UgI#xJG=Y7k\XnpL*O^=Nyc++WRUq-wteuEf9X$^:6Reb\:FyByC57
     LTKzzDH  s2018 09 30bM*BMaO]3\4-!c,BV?:36lxyNlE'4yDb)@iEo2,:saX)4y)O2@u1C57
     LTKzzDH  S2018 09 30?$#+l=)T!Jw?$2%r+gPep?dHwtCb9G?1-1)6?*:q*ZOp_G!RAwq+C57
     LTKzzDH  s2018 09 30Qs\KxdOK)Xa#t6IpOJLVmSMx^F5/c3M'+R55ml+If,_559NEARCtC57
     LTKzzDH  S2018 10 016D/EavLh((tq=AcIk)/Pe?W:M5pKc,oL+VIWD+`rVW9?Z^HCi@/.C57
     LTKzzDH  s2018 10 01Q#MY8w*V*y(iU+!Sj;%Frr?-WAPF;_.mb5U30eq/m`SaqwvxOn=\C57
     LTKzzDH &C2018 10 22%9fKT4!BI'Q\7SdnqUinXela4dw9#c?1CS3@Vnq9,4F`R:YIpHq(W84
     LTKzzDH &C2018 11 17hi(@o_)hp'u]GRRE^,kx8`Wa038HQ[$Y!s^h?kLfC$_BEh:^NLy^W84
     LTKzzDH &C2018 11 17,2PTceXv@+nXG]x9/6gWY)#!w;O#ng/'qcD\uuV'ih(Lfu5_2VE_W84
     LTKzzDH &C2018 12 01sF7hO:]pJgg#c7YD'!L-hw'4Sw3mq3^9RP2VnyDeVai_]jeE2gB9W84

Station data:
(C57) TESS.  Observer R. Vanderspek. Measurers J. Brown, E. Evans, E. Main,
   R.  Rios, J. Ruprecht, J. Vaillancourt, J. Varey, H. Viggh, D. Woods.
   0.10-m  f/1.4 reflector + CCD.
(W84) Cerro Tololo-DECam  (S30.169594 W70.806420)  Chile.  Observer S. Deen.
   4.0-m reflector + CCD.

Orbital elements:  LTKzzDH
   Perihelion 2016 Jun 30.26795 +/- 0.0207 TT =  6:25:51 (JD 2457569.76795)
Epoch 2018 Sep 30.0 TT = JDT 2458391.5                        AutoNEOCP
q   8.00183586 +/- 0.000217         (J2000 ecliptic)
H    9.5  G 0.15                    Peri.  263.88006 +/- 0.0011
                                    Node    24.99255 +/- 0.00034
e   1.0041239 +/- 0.000187          Incl.   78.41205 +/- 0.00018
25 of 38 observations 2014 Feb. 15-2018 Sept. 30; mean residual 2".10
Residuals in arcseconds: 
140215 W84  .48-  .23-    180922 C57  3.4+  2.9+    180928 C57( 6.9+  7.6-)   
140215 W84  .74-  .25-    180922 C57  2.9-  1.2-    180928 C57( 3.9+  6.9-)   
160214 W84  .89+  .28-    180922 C57  2.4+  3.4+    180928 C57  2.5+  2.0-    
160214 W84  .69+  .35-    180922 C57  4.6-  2.0-    180930 C57( .57-  6.2-)   
160215 W84  .55+  .31-    180923 C57  .78-  2.3-    180930 C57  1.9+  2.7-    
160215 W84  .66+  .21-    180923 C57  1.7+  1.2+    180930 C57  3.0-  .72-    
160229 W84  .10-  .11+    180923 C57( 4.7-  3.8+)   180930 C57  2.5-  2.4-    
160229 W84  .02-  .18+    180923 C57  1.4+  4.8+    181001 C57( 1.6+  5.9+)   
171003 W84  1.8+  1.1+    180924 C57( 4.8-  5.7+)   181022 W84( 4.1- 12.9+)   
171211 W84  4.1-  3.0+    180924 C57  4.5+  .13+    181117 W84( 5.7- 13.3+)   
180105 W84( 5.1-  5.2+)   180924 C57  1.0-  .38-    181117 W84( 5.8- 13.6+)   
180105 W84( 5.1-  5.3+)   180925 C57  1.2-  2.4-    181201 W84( 7.0- 14.3+)   
180909 W84( .60- 13.4+)   180927 C57  1.9+  2.3+    

Ephemerides (geocentric):
Date (UTC) HH   RA             Dec           delta  r     elong  mag " sig PA
---- --------  ------------   ------------  ------ ------ -----  --- --------
2022 11 26 21  01 29 42.215   +00 07 01.05  14.700 15.424 135.8 21.6 10.2 162
2022 11 26 22  01 29 41.713   +00 07 01.95  14.701 15.424 135.8 21.6 10.2 162
2022 11 26 23  01 29 41.211   +00 07 02.85  14.702 15.424 135.8 21.6 10.2 162
2022 11 27 00  01 29 40.710   +00 07 03.75  14.702 15.424 135.7 21.6 10.2 162
2022 11 27 01  01 29 40.209   +00 07 04.66  14.703 15.424 135.7 21.6 10.2 162
2022 11 27 02  01 29 39.708   +00 07 05.56  14.704 15.424 135.6 21.6 10.2 162
2022 11 27 03  01 29 39.208   +00 07 06.47  14.704 15.425 135.6 21.6 10.2 162
2022 11 27 04  01 29 38.708   +00 07 07.39  14.705 15.425 135.5 21.6 10.2 162
2022 11 27 05  01 29 38.208   +00 07 08.30  14.706 15.425 135.5 21.6 10.2 162
2022 11 27 06  01 29 37.709   +00 07 09.22  14.706 15.425 135.5 21.6 10.2 162
2022 11 27 07  01 29 37.210   +00 07 10.14  14.707 15.425 135.4 21.6 10.2 162
2022 11 27 08  01 29 36.712   +00 07 11.07  14.708 15.426 135.4 21.6 10.2 162
2022 11 27 09  01 29 36.213   +00 07 11.99  14.708 15.426 135.3 21.6 10.2 162
2022 11 27 10  01 29 35.715   +00 07 12.92  14.709 15.426 135.3 21.6 10.2 162
2022 11 27 11  01 29 35.218   +00 07 13.85  14.710 15.426 135.2 21.6 10.2 162
2022 11 27 12  01 29 34.721   +00 07 14.79  14.710 15.426 135.2 21.6 10.2 162
2022 11 27 13  01 29 34.224   +00 07 15.72  14.711 15.426 135.2 21.6 10.2 162
2022 11 27 14  01 29 33.727   +00 07 16.66  14.712 15.427 135.1 21.6 10.2 162
2022 11 27 15  01 29 33.231   +00 07 17.60  14.712 15.427 135.1 21.6 10.2 162
2022 11 27 16  01 29 32.735   +00 07 18.55  14.713 15.427 135.0 21.6 10.2 162
2022 11 27 17  01 29 32.240   +00 07 19.49  14.714 15.427 135.0 21.6 10.2 162
2022 11 27 18  01 29 31.745   +00 07 20.44  14.715 15.427 134.9 21.6 10.2 162
2022 11 27 19  01 29 31.250   +00 07 21.40  14.715 15.428 134.9 21.6 10.2 162
2022 11 27 20  01 29 30.756   +00 07 22.35  14.716 15.428 134.9 21.6 10.2 162
2022 11 27 21  01 29 30.262   +00 07 23.31  14.717 15.428 134.8 21.6 10.2 162
2022 11 27 22  01 29 29.768   +00 07 24.27  14.717 15.428 134.8 21.6 10.2 162
2022 11 27 23  01 29 29.275   +00 07 25.23  14.718 15.428 134.7 21.6 10.2 162
2022 11 28 00  01 29 28.782   +00 07 26.19  14.719 15.428 134.7 21.6 10.2 162
2022 11 28 01  01 29 28.289   +00 07 27.16  14.719 15.429 134.6 21.6 10.2 161
2022 11 28 02  01 29 27.797   +00 07 28.13  14.720 15.429 134.6 21.6 10.2 161
2022 11 28 03  01 29 27.305   +00 07 29.10  14.721 15.429 134.6 21.6 10.2 161
2022 11 28 04  01 29 26.813   +00 07 30.08  14.721 15.429 134.5 21.6 10.2 161
2022 11 28 05  01 29 26.322   +00 07 31.06  14.722 15.429 134.5 21.6 10.2 161
2022 11 28 06  01 29 25.831   +00 07 32.04  14.723 15.429 134.4 21.6 10.1 161
2022 11 28 07  01 29 25.341   +00 07 33.02  14.723 15.430 134.4 21.6 10.1 161
2022 11 28 08  01 29 24.851   +00 07 34.01  14.724 15.430 134.3 21.6 10.1 161
2022 11 28 09  01 29 24.361   +00 07 35.00  14.725 15.430 134.3 21.6 10.1 161
2022 11 28 10  01 29 23.871   +00 07 35.99  14.726 15.430 134.3 21.6 10.1 161
2022 11 28 11  01 29 23.382   +00 07 36.98  14.726 15.430 134.2 21.6 10.1 161
2022 11 28 12  01 29 22.893   +00 07 37.98  14.727 15.431 134.2 21.6 10.1 161
2022 11 28 13  01 29 22.405   +00 07 38.97  14.728 15.431 134.1 21.6 10.1 161
2022 11 28 14  01 29 21.917   +00 07 39.98  14.728 15.431 134.1 21.6 10.1 161
2022 11 28 15  01 29 21.429   +00 07 40.98  14.729 15.431 134.0 21.6 10.1 161
2022 11 28 16  01 29 20.942   +00 07 41.99  14.730 15.431 134.0 21.6 10.1 161
2022 11 28 17  01 29 20.455   +00 07 42.99  14.730 15.431 134.0 21.6 10.1 161
2022 11 28 18  01 29 19.968   +00 07 44.01  14.731 15.432 133.9 21.6 10.1 161
2022 11 28 19  01 29 19.482   +00 07 45.02  14.732 15.432 133.9 21.6 10.1 161
2022 11 28 20  01 29 18.996   +00 07 46.04  14.732 15.432 133.8 21.6 10.1 161